Location: Hartford
(41.7640°N, 72.6860°W)
Time: 08:51:10
(UTC-04:00)

Amateur Radio Satellites - All Passes

Search period start: 27 August 2014 08:21
Search period end: 28 August 2014 08:21
Location: Hartford, 41.7640°N, 72.6860°W

Satellite Date Start Highest point End Downlink Frequencies (MHz)
Time Altitude Azimuth
JAS-2 27 Aug 08:29:00 08:32:33 19° 297° (WNW) 08:36:12 435.800 - 435.900 CW/SSB, 435.910 FM
SO-67 27 Aug 08:35:30 08:38:39 33° 288° (WNW) 08:41:47 435.3500 MHz FM
RS-15 27 Aug 08:48:26 08:59:32 82° 119° (ESE) 09:10:28 29.354 - 29.394 USB, Beacon 29.352 USB
Saudisat 1A 27 Aug 09:16:33 09:20:38 38° 244° (WSW) 09:24:42 436.775 MHz
KITSAT 1 27 Aug 09:34:07 09:42:15 87° 59° (ENE) 09:50:19 435.175 FM
UKube-1 27 Aug 09:35:35 09:39:07 24° 95° (E) 09:42:37 145.840 MHz, 145.915 MHz
Oscar 11 27 Aug 09:46:02 09:49:19 20° 93° (E) 09:52:34 145.825 FM, Beacon 2401.500 USB
HO-68 27 Aug 09:55:35 10:02:44 69° 104° (ESE) 10:09:51 435.675 MHz FM
FUNcube-1 27 Aug 10:02:01 10:03:54 12° 90° (E) 10:05:47 145.950 - 145.970 MHz USB
RS-15 27 Aug 11:03:21 11:13:07 35° 325° (NW) 11:22:54 29.354 - 29.394 USB, Beacon 29.352 USB
UKube-1 27 Aug 11:11:30 11:15:20 31° 291° (WNW) 11:19:08 145.840 MHz, 145.915 MHz
Oscar 11 27 Aug 11:21:35 11:25:36 36° 290° (WNW) 11:29:35 145.825 FM, Beacon 2401.500 USB
ISS 27 Aug 11:26:34 11:29:19 25° 135° (SE) 11:32:05 145.800 FM
KITSAT 1 27 Aug 11:31:15 11:36:36 20° 258° (WSW) 11:41:57 435.175 FM
FUNcube-1 27 Aug 11:36:13 11:40:40 65° 286° (WNW) 11:45:11 145.950 - 145.970 MHz USB
HO-68 27 Aug 11:44:18 11:49:49 25° 302° (WNW) 11:55:21 435.675 MHz FM
Oscar 19 27 Aug 12:09:43 12:12:35 15° 60° (ENE) 12:15:28 437.125 CW, 437.150 USB
JAS-1B 27 Aug 12:22:17 12:28:44 21° 54° (NE) 12:34:46 435.800 - 435.900 CW/SSB
ITAMSAT 1 27 Aug 12:34:49 12:36:29 12° 57° (ENE) 12:38:09 435.822 SSB
SO-50 27 Aug 12:35:46 12:39:52 28° 46° (NE) 12:44:01 436.795 FM
Oscar 16 27 Aug 12:42:00 12:46:26 30° 67° (ENE) 12:50:55 437.025 USB, Beacon 2401.1428
Uribyol 2 27 Aug 12:44:23 12:47:16 15° 60° (ENE) 12:50:09 436.500 FM
AO-27 27 Aug 13:00:25 13:04:09 21° 63° (ENE) 13:07:53 436.795 MHz FM
ISS 27 Aug 13:02:44 13:05:54 42° 332° (NNW) 13:09:06 145.800 FM
AO-Echo 27 Aug 13:05:49 13:09:44 23° 66° (ENE) 13:13:35 ?
Gurwin Techsat 1B 27 Aug 13:09:41 13:11:10 11° 57° (ENE) 13:12:39 435.225 FM
MaSat-1 27 Aug 13:10:27 13:13:46 19° 101° (ESE) 13:17:14 437.345 MHz
RS-15 27 Aug 13:22:18 13:30:03 21° 0° (N) 13:37:52 29.354 - 29.394 USB, Beacon 29.352 USB
Oscar 19 27 Aug 13:46:09 13:51:17 74° 257° (WSW) 13:56:29 437.125 CW, 437.150 USB
TMSAT-1 27 Aug 14:00:36 14:04:43 24° 64° (ENE) 14:08:52 436.925 FM
JAS-1B 27 Aug 14:08:09 14:18:01 78° 72° (ENE) 14:27:03 435.800 - 435.900 CW/SSB
ITAMSAT 1 27 Aug 14:09:59 14:15:09 84° 75° (ENE) 14:20:21 435.822 SSB
SO-50 27 Aug 14:16:04 14:20:35 42° 243° (WSW) 14:25:08 436.795 FM
Uribyol 2 27 Aug 14:20:58 14:26:07 73° 257° (WSW) 14:31:18 436.500 FM
Oscar 16 27 Aug 14:21:03 14:25:41 34° 263° (W) 14:30:23 437.025 USB, Beacon 2401.1428
AO-27 27 Aug 14:38:13 14:43:16 53° 260° (W) 14:48:20 436.795 MHz FM
ISS 27 Aug 14:41:05 14:43:17 16° 351° (N) 14:45:29 145.800 FM
AO-Echo 27 Aug 14:43:25 14:48:16 43° 261° (W) 14:52:59 ?
Gurwin Techsat 1B 27 Aug 14:44:57 14:50:14 79° 75° (ENE) 14:55:34 435.225 FM
MaSat-1 27 Aug 14:45:31 14:50:19 57° 300° (WNW) 14:55:27 437.345 MHz
UOSAT-12 27 Aug 14:56:07 15:00:42 46° 51° (NE) 15:05:12 437.025 FM, 437.400 FM
AO-7 27 Aug 15:00:23 15:07:41 36° 58° (ENE) 15:14:58 29.400 - 29.500 MHz
Uosat F 27 Aug 15:30:55 15:35:18 32° 67° (ENE) 15:39:42 435.120 FM
RS-15 27 Aug 15:37:12 15:47:02 35° 35° (NE) 15:57:05 29.354 - 29.394 USB, Beacon 29.352 USB
TMSAT-1 27 Aug 15:39:17 15:44:20 46° 261° (W) 15:49:26 436.925 FM
PANSAT 27 Aug 15:43:22 15:44:34 11° 182° (S) 15:45:45 not established
ITAMSAT 1 27 Aug 15:53:41 15:55:17 11° 271° (W) 15:56:52 435.822 SSB
JAS-1B 27 Aug 16:01:04 16:09:01 28° 269° (W) 16:16:33 435.800 - 435.900 CW/SSB
ISS 27 Aug 16:18:38 16:20:58 18° 12° (NNE) 16:23:18 145.800 FM
MaSat-1 27 Aug 16:27:25 16:28:34 11° 320° (NW) 16:29:43 437.345 MHz
Gurwin Techsat 1B 27 Aug 16:28:31 16:30:48 13° 271° (W) 16:33:06 435.225 FM
Sapphire 27 Aug 16:29:31 16:31:33 12° 102° (ESE) 16:33:35 437.095 MHz 1200 baud AX-25 AFSK
UOSAT-12 27 Aug 16:36:57 16:40:32 22° 249° (WSW) 16:44:04 437.025 FM, 437.400 FM
OPAL 27 Aug 16:39:13 16:43:40 28° 97° (E) 16:48:05 ?
AO-7 27 Aug 16:51:57 17:00:06 56° 257° (WSW) 17:08:17 29.400 - 29.500 MHz
JAS-2 27 Aug 16:55:57 17:00:56 26° 66° (ENE) 17:05:31 435.800 - 435.900 CW/SSB, 435.910 FM
PCSat 27 Aug 16:56:45 17:01:03 25° 107° (ESE) 17:05:22 145.825 MHz
Uosat F 27 Aug 17:09:39 17:14:02 30° 264° (W) 17:18:28 435.120 FM
Hamsat 27 Aug 17:24:18 17:28:13 36° 71° (ENE) 17:32:12 145.90 MHz
RS-15 27 Aug 17:49:35 18:00:42 83° 240° (WSW) 18:12:16 29.354 - 29.394 USB, Beacon 29.352 USB
ISS 27 Aug 17:54:58 17:58:15 54° 31° (NNE) 18:01:31 145.800 FM
Sapphire 27 Aug 18:08:45 18:14:09 88° 300° (WNW) 18:19:37 437.095 MHz 1200 baud AX-25 AFSK
OPAL 27 Aug 18:17:47 18:22:35 38° 294° (WNW) 18:27:22 ?
STRAND 1 27 Aug 18:19:13 18:20:53 11° 89° (E) 18:22:32 ?
Oscar 10/S400 27 Aug 18:22:21 18:39:40 41° 150° (SSE) 19:15:41 145.825 - 145.975 CW/USB, Beacon 145.810 USB
PCSat 27 Aug 18:38:56 18:44:09 48° 305° (NW) 18:49:24 145.825 MHz
JAS-2 27 Aug 18:39:38 18:45:49 49° 260° (W) 18:51:21 435.800 - 435.900 CW/SSB, 435.910 FM
HO-68 27 Aug 18:43:44 18:44:54 10° 47° (NE) 18:46:04 435.675 MHz FM
Hamsat 27 Aug 19:01:06 19:04:17 20° 267° (W) 19:07:31 145.90 MHz
SO-67 27 Aug 19:08:12 19:11:40 77° 76° (ENE) 19:15:09 435.3500 MHz FM
ISS 27 Aug 19:32:19 19:34:43 19° 227° (SW) 19:37:07 145.800 FM
Sapphire 27 Aug 19:54:57 19:58:23 17° 319° (NW) 20:01:49 437.095 MHz 1200 baud AX-25 AFSK
STRAND 1 27 Aug 19:55:33 20:00:40 82° 286° (WNW) 20:05:46 ?
RS-15 27 Aug 20:04:09 20:11:24 20° 260° (W) 20:18:51 29.354 - 29.394 USB, Beacon 29.352 USB
HO-68 27 Aug 20:24:09 20:31:01 53° 67° (ENE) 20:37:54 435.675 MHz FM
PCSat 27 Aug 20:28:04 20:28:57 10° 327° (NNW) 20:29:50 145.825 MHz
UKube-1 27 Aug 20:31:41 20:35:05 23° 66° (ENE) 20:38:29 145.840 MHz, 145.915 MHz
Oscar 11 27 Aug 20:41:58 20:44:52 18° 65° (ENE) 20:47:46 145.825 FM, Beacon 2401.500 USB
AO-40 27 Aug 20:43:46 02:28:11 39° 183° (S) 08:11:02 Beacon 2401.320
FUNcube-1 27 Aug 21:01:13 21:01:23 10° 61° (ENE) 21:01:32 145.950 - 145.970 MHz USB
STRAND 1 27 Aug 21:37:44 21:39:02 11° 303° (WNW) 21:40:20 ?
UKube-1 27 Aug 22:07:10 22:11:06 33° 262° (W) 22:15:03 145.840 MHz, 145.915 MHz
HO-68 27 Aug 22:12:52 22:18:58 30° 265° (W) 22:25:07 435.675 MHz FM
Oscar 11 27 Aug 22:16:34 22:20:42 44° 261° (W) 22:24:53 145.825 FM, Beacon 2401.500 USB
FUNcube-1 27 Aug 22:32:58 22:37:07 77° 258° (WSW) 22:41:21 145.950 - 145.970 MHz USB
MaSat-1 27 Aug 23:03:23 23:07:49 38° 56° (NE) 23:11:43 437.345 MHz
Saudisat 1A 27 Aug 23:22:48 23:27:03 50° 118° (ESE) 23:31:20 436.775 MHz
KITSAT 1 28 Aug 00:02:08 00:10:02 60° 114° (ESE) 00:17:57 435.175 FM
MaSat-1 28 Aug 00:41:05 00:44:32 21° 258° (WSW) 00:47:39 437.345 MHz
Saudisat 1A 28 Aug 01:03:30 01:06:54 21° 317° (NW) 01:10:20 436.775 MHz
Sapphire 28 Aug 01:14:33 01:17:38 15° 39° (NE) 01:20:43 437.095 MHz 1200 baud AX-25 AFSK
PCSat 28 Aug 01:43:37 01:48:02 24° 46° (NE) 01:52:24 145.825 MHz
JAS-1B 28 Aug 01:57:35 02:01:52 17° 86° (E) 02:05:47 435.800 - 435.900 CW/SSB
Oscar 19 28 Aug 01:57:42 02:02:34 39° 98° (E) 02:07:23 437.125 CW, 437.150 USB
KITSAT 1 28 Aug 01:58:30 02:05:50 37° 315° (NW) 02:13:12 435.175 FM
ITAMSAT 1 28 Aug 02:23:03 02:27:33 29° 96° (E) 02:32:01 435.822 SSB
Oscar 16 28 Aug 02:31:47 02:37:02 84° 104° (ESE) 02:42:13 437.025 USB, Beacon 2401.1428
Uribyol 2 28 Aug 02:33:36 02:38:27 39° 98° (E) 02:43:17 436.500 FM
AO-Echo 28 Aug 02:50:09 02:54:48 58° 101° (E) 02:59:25 ?
AO-27 28 Aug 02:50:50 02:55:55 54° 101° (E) 03:00:59 436.795 MHz FM
Sapphire 28 Aug 02:56:32 03:01:59 78° 60° (ENE) 03:07:24 437.095 MHz 1200 baud AX-25 AFSK
Gurwin Techsat 1B 28 Aug 03:01:20 03:06:00 31° 96° (E) 03:10:39 435.225 FM
PCSat 28 Aug 03:26:29 03:31:48 56° 246° (WSW) 03:37:04 145.825 MHz
Oscar 19 28 Aug 03:37:24 03:41:42 27° 295° (WNW) 03:46:00 437.125 CW, 437.150 USB
JAS-1B 28 Aug 03:46:28 03:53:30 70° 289° (WNW) 03:59:28 435.800 - 435.900 CW/SSB
OPAL 28 Aug 03:54:13 03:59:05 50° 69° (ENE) 04:04:02 ?
TMSAT-1 28 Aug 03:54:32 03:59:50 70° 102° (ESE) 04:05:06 436.925 FM
KITSAT 1 28 Aug 04:00:15 04:04:05 14° 343° (NNW) 04:07:56 435.175 FM
ITAMSAT 1 28 Aug 04:02:23 04:07:03 35° 292° (WNW) 04:11:42 435.822 SSB
Oscar 16 28 Aug 04:13:11 04:15:39 14° 301° (WNW) 04:18:07 437.025 USB, Beacon 2401.1428
Uribyol 2 28 Aug 04:13:27 04:17:44 27° 295° (WNW) 04:22:01 436.500 FM
AO-Echo 28 Aug 04:30:20 04:33:06 16° 298° (WNW) 04:35:53 ?
SO-50 28 Aug 04:30:59 04:35:22 60° 119° (ESE) 04:39:52 436.795 FM
AO-27 28 Aug 04:31:20 04:35:01 20° 297° (WNW) 04:38:43 436.795 MHz FM
Gurwin Techsat 1B 28 Aug 04:41:12 04:45:57 34° 292° (WNW) 04:50:41 435.225 FM
Sapphire 28 Aug 04:41:52 04:44:42 14° 257° (WSW) 04:47:31 437.095 MHz 1200 baud AX-25 AFSK
AO-7 28 Aug 04:53:01 05:01:03 51° 101° (ESE) 05:09:01 29.400 - 29.500 MHz
UOSAT-12 28 Aug 05:10:23 05:12:14 12° 107° (ESE) 05:14:06 437.025 FM, 437.400 FM
Uosat F 28 Aug 05:16:14 05:21:16 80° 104° (ESE) 05:26:16 435.120 FM
OPAL 28 Aug 05:34:38 05:38:14 20° 265° (W) 05:41:55 ?
STRAND 1 28 Aug 05:34:38 05:38:10 19° 62° (ENE) 05:41:43 ?
TMSAT-1 28 Aug 05:35:58 05:39:10 16° 299° (WNW) 05:42:21 436.925 FM
JAS-1B 28 Aug 05:39:48 05:42:30 13° 312° (NW) 05:45:03 435.800 - 435.900 CW/SSB
JAS-2 28 Aug 05:48:55 05:52:25 18° 93° (E) 05:56:02 435.800 - 435.900 CW/SSB, 435.910 FM
KITSAT 1 28 Aug 06:00:21 06:03:51 13° 15° (NNE) 06:07:20 435.175 FM
RS-15 28 Aug 06:10:04 06:13:38 12° 95° (E) 06:17:10 29.354 - 29.394 USB, Beacon 29.352 USB
SO-50 28 Aug 06:13:01 06:16:20 20° 319° (NW) 06:19:42 436.795 FM
Hamsat 28 Aug 06:45:13 06:49:35 72° 101° (ESE) 06:53:54 145.90 MHz
AO-7 28 Aug 06:46:10 06:53:36 39° 300° (WNW) 07:01:01 29.400 - 29.500 MHz
UOSAT-12 28 Aug 06:47:06 06:51:43 77° 304° (NW) 06:56:26 437.025 FM, 437.400 FM
Uosat F 28 Aug 06:57:02 06:59:23 13° 301° (WNW) 07:01:44 435.120 FM
STRAND 1 28 Aug 07:11:57 07:16:56 55° 259° (W) 07:21:57 ?
JAS-2 28 Aug 07:32:49 07:37:52 54° 288° (WNW) 07:43:12 435.800 - 435.900 CW/SSB, 435.910 FM
Saudisat 1A 28 Aug 07:49:15 07:53:30 44° 51° (NE) 07:57:43 436.775 MHz
KITSAT 1 28 Aug 07:55:08 08:02:18 33° 43° (NE) 08:09:24 435.175 FM
SO-67 28 Aug 08:04:38 08:08:07 89° 280° (W) 08:11:35 435.3500 MHz FM
